When you browse on this site, cookies collect data to enhance your experience and personalize the content and advertising you see.
Visit our Privacy Policy to learn more. By continuing to use the site, you agree to this use of cookies and data.
  • In Hungary
  • List of Countries
  • For 7 days
  • Water Temperature
  • Satellite Maps
  • Weather Map
  • News
  • Weather Widgets
  • user-avatar
    Login

    Hourly Weather Vidnozhyne

    Today, 21 July, Sunday

    Time Temperature Precipitation Wind Pressure Humidity
    00:00 +21°C° 0 mm 2 mps 756 mmHg 50%
    01:00 +21°C° 0 mm 2 mps 756 mmHg 52%
    02:00 +20°C° 0 mm 2 mps 756 mmHg 54%
    03:00 +20°C° 0 mm 2 mps 756 mmHg 55%
    04:00 +20°C° 0 mm 2 mps 756 mmHg 56%
    05:00 +21°C° 0 mm 1 mps 756 mmHg 57%
    06:00 +23°C° 0 mm 1 mps 756 mmHg 51%
    07:00 +26°C° 0 mm 1 mps 756 mmHg 45%
    08:00 +28°C° 0 mm 1 mps 756 mmHg 39%
    09:00 +29°C° 0 mm 2 mps 756 mmHg 35%
    10:00 +30°C° 0 mm 2 mps 756 mmHg 32%
    11:00 +31°C° 0 mm 2 mps 756 mmHg 28%
    12:00 +31°C° 0 mm 2 mps 756 mmHg 29%
    13:00 +31°C° 0 mm 3 mps 756 mmHg 30%
    14:00 +31°C° 0 mm 3 mps 755 mmHg 31%
    15:00 +31°C° 0 mm 2 mps 755 mmHg 31%
    16:00 +31°C° 0 mm 2 mps 755 mmHg 32%
    17:00 +31°C° 0 mm 2 mps 755 mmHg 32%
    18:00 +29°C° 0 mm 1 mps 755 mmHg 36%
    19:00 +27°C° 0 mm 1 mps 755 mmHg 41%
    20:00 +25°C° 0 mm 1 mps 755 mmHg 45%
    21:00 +25°C° 0 mm 1 mps 755 mmHg 47%
    22:00 +24°C° 0 mm 1 mps 755 mmHg 49%
    23:00 +24°C° 0 mm 1 mps 756 mmHg 50%

    Tomorrow, 22 July, Monday

    Time Temperature Precipitation Wind Pressure Humidity
    00:00 +23°C° 0 mm 1 mps 755 mmHg 52%
    01:00 +22°C° 0 mm 1 mps 755 mmHg 54%
    02:00 +22°C° 0 mm 1 mps 755 mmHg 56%
    03:00 +22°C° 0 mm 1 mps 755 mmHg 56%
    04:00 +22°C° 0 mm 1 mps 755 mmHg 56%
    05:00 +22°C° 0 mm 1 mps 755 mmHg 57%
    06:00 +25°C° 0 mm 1 mps 755 mmHg 51%
    07:00 +27°C° 0 mm 1 mps 755 mmHg 46%
    08:00 +29°C° 0 mm 1 mps 755 mmHg 40%
    09:00 +30°C° 0 mm 1 mps 755 mmHg 37%
    10:00 +31°C° 0 mm 2 mps 755 mmHg 34%
    11:00 +32°C° 0 mm 2 mps 755 mmHg 32%
    12:00 +32°C° 0 mm 2 mps 755 mmHg 32%
    13:00 +32°C° 0 mm 1 mps 754 mmHg 32%
    14:00 +32°C° 0 mm 1 mps 754 mmHg 33%
    15:00 +34°C° 0 mm 2 mps 754 mmHg 33%
    16:00 +34°C° 0 mm 2 mps 753 mmHg 33%
    17:00 +34°C° 0 mm 2 mps 753 mmHg 33%
    18:00 +31°C° 0 mm 3 mps 753 mmHg 36%
    19:00 +30°C° 0 mm 5 mps 753 mmHg 39%
    20:00 +28°C° 0 mm 6 mps 753 mmHg 43%
    21:00 +27°C° 0 mm 5 mps 753 mmHg 47%
    22:00 +26°C° 0 mm 5 mps 753 mmHg 51%
    23:00 +25°C° 0 mm 4 mps 753 mmHg 55%

    Day after tomorrow, 23 July, Tuesday

    Time Temperature Precipitation Wind Pressure Humidity
    00:00 +24°C° 0.2 mm 3 mps 753 mmHg 60%
    01:00 +24°C° 0.2 mm 3 mps 752 mmHg 65%
    02:00 +23°C° 0.2 mm 2 mps 752 mmHg 71%
    03:00 +23°C° 0.1 mm 2 mps 752 mmHg 74%
    04:00 +22°C° 0.1 mm 3 mps 752 mmHg 78%
    05:00 +22°C° 0.1 mm 3 mps 752 mmHg 82%
    06:00 +22°C° 0.4 mm 3 mps 752 mmHg 81%
    07:00 +22°C° 0.4 mm 4 mps 752 mmHg 81%
    08:00 +22°C° 0.4 mm 4 mps 752 mmHg 81%
    09:00 +23°C° 0.1 mm 4 mps 752 mmHg 77%
    10:00 +23°C° 0.1 mm 4 mps 752 mmHg 73%
    11:00 +25°C° 0.1 mm 5 mps 752 mmHg 68%
    12:00 +23°C° 0.1 mm 5 mps 752 mmHg 70%
    13:00 +22°C° 0.1 mm 5 mps 751 mmHg 71%
    14:00 +21°C° 0.1 mm 6 mps 751 mmHg 72%
    15:00 +21°C° 0.3 mm 4 mps 751 mmHg 75%
    16:00 +20°C° 0.3 mm 3 mps 751 mmHg 78%
    17:00 +20°C° 0.3 mm 2 mps 751 mmHg 81%
    18:00 +20°C° 0.2 mm 2 mps 751 mmHg 82%
    19:00 +19°C° 0.2 mm 2 mps 751 mmHg 84%
    20:00 +20°C° 0.2 mm 1 mps 751 mmHg 86%
    21:00 +20°C° 0 mm 1 mps 751 mmHg 85%
    22:00 +20°C° 0 mm 1 mps 751 mmHg 85%
    23:00 +20°C° 0 mm 1 mps 751 mmHg 84%

    24 July, Wednesday

    Time Temperature Precipitation Wind Pressure Humidity
    00:00 +19°C° 0 mm 1 mps 751 mmHg 84%
    01:00 +18°C° 0 mm 2 mps 751 mmHg 84%
    02:00 +18°C° 0 mm 2 mps 751 mmHg 84%
    03:00 +19°C° 0.3 mm 1 mps 751 mmHg 86%
    04:00 +19°C° 0.3 mm 1 mps 751 mmHg 87%
    05:00 +19°C° 0.3 mm 1 mps 750 mmHg 89%
    06:00 +19°C° 1 mm 1 mps 750 mmHg 88%
    07:00 +19°C° 1 mm 1 mps 750 mmHg 88%
    08:00 +20°C° 1 mm 1 mps 750 mmHg 87%
    09:00 +20°C° 0.3 mm 1 mps 750 mmHg 81%
    10:00 +21°C° 0.3 mm 1 mps 750 mmHg 75%
    11:00 +21°C° 0.3 mm 1 mps 750 mmHg 70%
    12:00 +23°C° 0 mm 2 mps 750 mmHg 62%
    13:00 +24°C° 0 mm 2 mps 750 mmHg 55%
    14:00 +25°C° 0 mm 2 mps 750 mmHg 47%
    15:00 +23°C° 0.1 mm 4 mps 750 mmHg 52%
    16:00 +22°C° 0.1 mm 5 mps 750 mmHg 56%
    17:00 +21°C° 0.1 mm 7 mps 750 mmHg 61%
    18:00 +20°C° 0 mm 5 mps 750 mmHg 65%
    19:00 +19°C° 0 mm 4 mps 750 mmHg 69%
    20:00 +18°C° 0 mm 3 mps 750 mmHg 74%
    21:00 +17°C° 0 mm 3 mps 750 mmHg 77%
    22:00 +17°C° 0 mm 2 mps 750 mmHg 80%
    23:00 +17°C° 0 mm 2 mps 750 mmHg 84%

    25 July, Thursday

    Time Temperature Precipitation Wind Pressure Humidity
    00:00 +16°C° 0.1 mm 3 mps 749 mmHg 87%
    01:00 +16°C° 0.1 mm 3 mps 749 mmHg 90%
    02:00 +16°C° 0.1 mm 3 mps 749 mmHg 93%
    03:00 +16°C° 0.1 mm 3 mps 749 mmHg 93%
    04:00 +16°C° 0.1 mm 3 mps 749 mmHg 93%
    05:00 +17°C° 0.1 mm 3 mps 749 mmHg 93%
    06:00 +17°C° 0.3 mm 3 mps 749 mmHg 91%
    07:00 +18°C° 0.3 mm 3 mps 749 mmHg 89%
    08:00 +19°C° 0.3 mm 3 mps 749 mmHg 88%
    09:00 +19°C° 0.7 mm 3 mps 749 mmHg 86%
    10:00 +19°C° 0.7 mm 3 mps 749 mmHg 85%
    11:00 +20°C° 0.7 mm 3 mps 749 mmHg 84%
    12:00 +21°C° 0.5 mm 3 mps 749 mmHg 77%
    13:00 +22°C° 0.5 mm 3 mps 749 mmHg 71%
    14:00 +25°C° 0.5 mm 3 mps 749 mmHg 65%
    15:00 +25°C° 0.6 mm 3 mps 748 mmHg 65%
    16:00 +25°C° 0.6 mm 3 mps 748 mmHg 65%
    17:00 +25°C° 0.6 mm 3 mps 748 mmHg 64%
    18:00 +22°C° 0.8 mm 3 mps 748 mmHg 71%
    19:00 +21°C° 0.8 mm 3 mps 749 mmHg 77%
    20:00 +19°C° 0.8 mm 3 mps 749 mmHg 83%
    21:00 +19°C° 0 mm 3 mps 749 mmHg 85%
    22:00 +19°C° 0 mm 3 mps 749 mmHg 86%
    23:00 +18°C° 0 mm 3 mps 749 mmHg 88%

    26 July, Friday

    Time Temperature Precipitation Wind Pressure Humidity
    00:00 +18°C° 0 mm 3 mps 749 mmHg 88%
    01:00 +18°C° 0 mm 3 mps 749 mmHg 88%
    02:00 +17°C° 0 mm 3 mps 749 mmHg 88%
    03:00 +17°C° 0 mm 3 mps 749 mmHg 88%
    04:00 +17°C° 0 mm 3 mps 749 mmHg 87%
    05:00 +17°C° 0 mm 3 mps 749 mmHg 87%
    06:00 +19°C° 0 mm 4 mps 749 mmHg 81%
    07:00 +20°C° 0 mm 4 mps 749 mmHg 74%
    08:00 +22°C° 0 mm 4 mps 749 mmHg 68%
    09:00 +23°C° 0.4 mm 4 mps 749 mmHg 64%
    10:00 +25°C° 0.4 mm 4 mps 749 mmHg 60%
    11:00 +26°C° 0.4 mm 4 mps 749 mmHg 56%
    12:00 +27°C° 0.2 mm 3 mps 749 mmHg 52%
    13:00 +28°C° 0.2 mm 3 mps 749 mmHg 49%
    14:00 +28°C° 0.2 mm 3 mps 749 mmHg 45%
    15:00 +28°C° 0.3 mm 3 mps 749 mmHg 50%
    16:00 +27°C° 0.3 mm 2 mps 748 mmHg 55%
    17:00 +26°C° 0.3 mm 1 mps 748 mmHg 60%
    18:00 +24°C° 0.3 mm 1 mps 748 mmHg 66%
    19:00 +23°C° 0.3 mm 1 mps 749 mmHg 72%
    20:00 +22°C° 0.3 mm 1 mps 749 mmHg 77%
    21:00 +21°C° 0 mm 2 mps 749 mmHg 78%
    22:00 +20°C° 0 mm 3 mps 749 mmHg 79%
    23:00 +20°C° 0 mm 3 mps 749 mmHg 80%
    Show more